Wind_Speed
38 37 37 37 36 37 37 37 38 39 39 40 41 42 42 38 32 27 25 24 22 20 20 21 22 22 27 30 30 32 34 32 31 24 15 15 18 21 25 28 28 27 28
39 37 38 37 35 33 33 34 34 33 34 37 37 37 35 32 30 26 19 20 21 20 23 24 25 27 31 32 30 28 26 23 16 11 12 16 19 20 21 24 25 26 27
37 37 38 37 35 31 30 30 30 30 30 32 33 32 31 27 28 23 21 21 20 18 19 16 16 19 27 26 24 20 17 13 11 16 17 18 21 24 25 25 24 24 25
34 35 36 36 35 31 29 29 29 28 24 24 25 25 22 18 20 22 23 22 21 23 22 17 15 19 18 18 17 15 14 16 19 21 22 23 24 25 25 25 26 26 27
33 32 33 34 35 31 28 28 26 21 18 18 20 17 17 18 16 16 21 23 23 22 18 15 14 15 12 11 14 15 16 18 21 23 23 23 23 24 25 26 28 29 31
37 32 30 33 35 31 27 26 22 18 16 13 15 12 11 12 14 15 17 16 18 18 15 14 14 14 12 12 13 15 16 17 18 20 22 21 22 24 26 28 29 30 32
38 35 31 33 35 32 27 25 24 20 14 11 14 13 12 10 7 8 11 16 17 17 16 16 15 13 14 13 13 14 15 15 15 17 19 20 21 23 24 24 25 27 28
39 37 31 31 32 32 28 24 24 21 18 13 13 14 15 13 10 10 12 14 17 18 18 15 15 15 16 15 14 15 14 12 12 13 15 15 15 17 19 24 28 31 34
40 38 32 32 30 31 28 24 23 22 20 15 16 16 17 17 14 12 13 15 15 16 17 17 15 14 13 13 13 12 11 11 10 9 11 14 17 20 23 26 30 33 35
44 40 37 34 31 31 29 26 23 22 21 18 18 19 21 23 21 15 11 10 10 12 12 11 10 10 10 10 10 10 10 9 9 11 13 17 20 24 27 31 34 35 36
50 46 41 39 35 30 28 28 26 21 19 18 18 20 20 22 20 18 15 13 11 10 11 12 13 11 10 10 10 11 11 11 10 10 13 18 23 26 28 29 30 31 31
54 47 40 38 34 27 28 29 28 21 19 17 15 16 15 13 15 18 20 15 9 8 11 14 15 13 11 10 11 12 11 10 9 12 16 20 23 24 26 29 30 29 27
55 52 46 38 35 31 33 31 30 23 18 15 12 11 9 7 8 12 15 16 12 11 11 12 12 14 13 11 11 11 10 9 10 12 15 20 24 26 27 26 26 25 22
54 50 46 45 35 34 36 34 30 24 20 18 14 12 12 10 10 12 13 15 14 13 11 12 13 14 13 11 10 10 9 9 9 11 15 19 23 26 25 23 23 21 19
56 54 47 41 38 35 35 35 32 26 23 23 19 16 14 13 12 13 14 15 15 15 15 13 11 11 11 10 9 9 10 9 10 12 13 16 21 24 24 23 22 21 20
57 51 50 50 43 38 38 36 35 30 26 25 22 20 17 15 14 15 14 15 16 17 15 13 13 14 13 11 9 10 11 10 12 14 12 13 18 22 23 24 25 25 25
54 55 55 57 48 38 36 36 34 32 29 28 25 23 21 18 15 14 14 15 17 18 16 15 14 14 12 11 11 11 11 11 13 15 11 11 15 19 20 23 26 26 26
48 48 48 54 46 38 37 37 36 33 31 30 28 26 24 20 16 14 13 14 14 13 13 12 12 11 11 11 12 11 11 12 13 12 9 8 12 16 18 22 25 28 30
43 41 38 41 44 43 41 39 37 34 32 30 29 28 25 22 18 15 14 14 13 12 12 11 11 11 11 12 13 12 13 13 12 12 9 5 8 12 17 22 26 28 30
41 42 39 41 46 46 40 40 39 36 31 28 26 26 25 23 20 18 16 15 14 13 13 13 13 13 13 13 14 14 14 15 15 14 12 8 6 10 16 24 28 28 28
41 41 42 46 44 43 39 40 40 36 30 28 27 27 26 25 24 23 19 16 16 16 16 15 14 14 14 13 14 16 17 16 15 16 17 15 14 14 19 24 24 25 28
40 41 43 43 41 40 40 40 41 37 31 30 29 29 29 28 27 24 20 18 17 18 18 16 15 15 14 14 15 16 17 17 17 17 19 19 20 20 21 21 22 26 29
36 35 38 40 40 41 39 38 39 38 32 29 26 24 24 24 23 20 18 17 18 18 18 17 16 15 14 15 15 15 17 19 19 18 20 20 20 21 20 20 24 27 30
33 34 33 33 36 41 40 36 35 35 32 28 23 22 23 21 18 16 14 15 16 16 17 16 16 15 15 15 14 16 19 21 21 20 22 22 21 20 19 20 23 26 30
37 37 36 35 37 39 38 37 35 35 33 28 21 21 22 19 15 14 15 15 15 15 16 16 16 15 14 14 15 17 19 21 21 21 20 21 21 20 19 20 23 27 30
41 41 38 34 34 33 31 33 36 36 35 31 25 20 19 16 14 15 15 14 13 14 15 16 15 14 14 15 16 18 21 23 23 19 17 18 19 20 21 22 25 29 32
Wind_Direction
324 323 324 317 305 297 293 292 293 293 289 285 284 284 287 285 279 275 273 265 262 255 250 239 233 231 241 248 261 259 260 265 270 267 254 241 251 260 264 261 260 262 262
318 321 324 322 313 304 299 295 291 290 290 289 289 289 289 282 268 268 244 248 237 228 229 216 212 218 237 246 244 241 248 255 257 247 239 244 251 262 268 268 264 259 259
313 318 323 323 319 310 303 300 296 291 293 293 293 295 294 286 266 254 228 233 216 201 200 211 218 219 225 239 245 246 248 243 245 251 260 268 267 266 267 270 271 269 264
309 315 320 322 317 313 306 303 304 299 290 286 290 290 285 272 246 222 214 207 186 185 193 212 238 252 253 258 252 241 239 245 254 261 264 266 266 266 267 268 269 269 269
302 308 315 319 316 309 306 305 308 307 298 289 291 287 271 251 239 213 208 216 222 217 218 225 242 249 247 253 253 250 250 255 261 267 270 270 270 270 271 270 269 268 267
296 301 308 312 313 307 305 307 311 311 306 300 294 293 289 272 242 235 224 236 239 232 228 233 235 235 238 238 244 254 258 261 267 270 270 273 275 275 275 276 275 275 276
293 294 302 306 308 304 299 304 307 303 297 305 292 277 273 272 228 222 235 237 236 233 233 233 239 244 244 241 243 251 257 262 267 274 277 278 279 279 280 282 284 284 283
286 288 293 295 297 293 291 293 297 292 289 295 291 282 273 269 261 254 245 238 235 233 233 233 234 236 240 244 248 249 252 257 261 267 271 275 276 277 282 285 288 289 289
273 278 282 283 287 286 283 287 286 282 284 291 290 291 280 273 269 254 251 247 246 240 235 235 233 234 235 234 234 239 248 254 255 267 284 292 296 299 300 299 298 296 292
261 266 270 273 275 277 274 276 278 279 276 278 284 289 285 281 276 263 255 253 244 243 241 230 218 211 217 232 237 237 239 246 263 286 300 308 312 313 313 311 308 305 301
254 260 263 258 261 267 268 265 266 269 265 267 275 282 282 276 261 246 239 245 252 248 232 218 216 224 236 231 226 229 241 259 276 299 315 320 319 317 314 313 312 311 306
246 249 248 245 249 251 254 256 259 257 254 256 268 277 279 267 241 232 230 231 230 211 204 210 221 231 219 227 236 242 255 276 295 317 325 327 329 328 327 325 322 318 312
234 235 235 232 237 245 247 244 246 249 249 249 252 262 254 215 213 227 220 214 216 212 209 226 227 212 219 236 240 240 257 276 301 317 325 331 334 336 337 333 325 322 318
227 223 230 234 227 241 243 237 235 238 241 239 236 234 219 207 217 226 211 206 214 222 225 208 203 211 232 244 232 241 259 276 300 322 332 335 336 340 344 341 334 329 325
225 225 223 219 216 228 235 226 223 230 236 230 223 219 207 202 208 215 212 214 221 226 219 216 228 239 250 245 239 253 265 288 321 325 325 336 341 343 348 353 353 346 339
222 225 224 226 215 223 229 220 217 222 228 223 216 214 211 201 211 221 217 217 222 222 223 231 242 245 248 248 247 260 276 305 313 308 320 343 345 345 354 358 360 358 353
225 216 215 217 207 212 220 215 210 217 219 215 209 210 219 215 216 223 224 225 229 232 234 237 240 240 246 259 263 265 273 287 291 300 322 349 354 353 358 3 5 4 360
230 220 207 205 199 207 211 208 204 211 211 207 205 206 217 221 219 221 224 229 227 226 229 232 234 239 243 256 262 260 265 278 284 294 317 354 7 1 3 3 5 7 6
231 228 212 197 200 207 206 201 200 207 206 203 202 207 212 216 216 220 229 237 236 231 230 233 235 240 243 251 252 249 255 263 272 283 302 343 11 4 359 355 352 354 359
232 230 215 198 204 208 203 200 199 203 202 200 202 207 211 215 218 223 229 239 243 243 242 241 239 240 243 250 253 247 246 249 258 270 281 293 321 338 339 338 338 341 350
225 222 213 208 212 215 206 201 198 199 200 201 205 209 213 219 224 227 234 242 248 251 252 250 247 246 248 252 255 250 246 247 254 266 273 277 286 305 321 328 333 342 349
212 211 210 212 214 209 201 200 196 194 200 205 211 219 223 226 230 235 237 237 243 249 253 254 253 254 257 260 256 253 250 252 261 269 272 275 281 293 308 317 324 334 342
198 199 202 207 209 207 196 202 198 194 200 207 211 216 218 220 220 221 225 236 241 248 252 252 254 256 261 259 250 251 255 259 264 271 278 282 284 288 296 309 320 327 332
181 185 191 197 196 192 193 196 193 193 197 201 202 202 201 202 209 217 233 246 247 248 247 249 252 255 256 252 253 257 259 262 266 274 280 280 284 288 296 309 319 326 328
171 178 185 187 183 185 193 194 194 194 194 194 195 196 196 199 211 232 248 249 245 242 242 245 251 253 250 254 260 263 267 273 275 278 277 279 285 290 296 304 315 323 325
168 172 176 180 181 184 194 200 199 195 195 200 204 199 195 201 221 247 251 247 238 233 238 246 248 248 259 267 269 271 273 274 276 277 275 280 284 287 292 300 310 317 322
Height
5768 5762 5756 5751 5745 5740 5737 5734 5731 5727 5724 5722 5720 5716 5714 5713 5711 5709 5709 5709 5709 5710 5713 5716 5719 5722 5723 5724 5728 5731 5731 5733 5735 5736 5737 5739 5740 5742 5745 5747 5748 5749 5750
5761 5755 5749 5744 5738 5733 5729 5726 5723 5718 5715 5711 5708 5705 5703 5703 5702 5701 5701 5704 5706 5707 5711 5712 5713 5715 5719 5720 5721 5723 5724 5725 5728 5730 5732 5733 5734 5735 5738 5739 5739 5739 5741
5753 5747 5741 5736 5730 5726 5723 5720 5716 5712 5708 5704 5699 5696 5694 5694 5694 5695 5697 5699 5701 5703 5705 5707 5708 5711 5713 5715 5717 5718 5719 5722 5723 5725 5726 5728 5729 5730 5732 5732 5731 5732 5733
5743 5738 5733 5728 5724 5719 5716 5713 5710 5705 5701 5698 5694 5690 5688 5688 5688 5691 5693 5695 5695 5698 5700 5702 5705 5708 5709 5711 5712 5713 5716 5718 5718 5719 5720 5721 5722 5723 5724 5724 5724 5725 5725
5736 5732 5727 5722 5718 5713 5710 5707 5703 5698 5695 5693 5690 5686 5684 5685 5686 5687 5687 5689 5692 5694 5695 5698 5702 5704 5704 5705 5708 5710 5711 5712 5714 5715 5715 5717 5717 5718 5718 5719 5718 5718 5717
5727 5723 5720 5714 5711 5707 5704 5701 5698 5694 5690 5689 5687 5685 5682 5682 5682 5683 5685 5686 5688 5689 5692 5695 5698 5699 5699 5700 5703 5706 5709 5709 5709 5710 5711 5711 5711 5712 5712 5711 5710 5709 5707
5717 5714 5712 5707 5703 5701 5698 5695 5693 5690 5687 5686 5684 5684 5682 5681 5679 5680 5681 5682 5684 5686 5688 5691 5692 5693 5696 5698 5701 5703 5704 5704 5704 5706 5707 5707 5706 5705 5704 5703 5702 5700 5697
5706 5704 5701 5699 5696 5694 5692 5689 5687 5685 5682 5681 5680 5680 5680 5680 5679 5679 5679 5680 5681 5682 5684 5685 5687 5691 5695 5696 5698 5699 5700 5701 5701 5701 5702 5702 5702 5701 5699 5697 5694 5692 5689
5693 5692 5691 5689 5687 5686 5683 5683 5679 5678 5677 5674 5674 5674 5676 5677 5676 5677 5676 5677 5678 5679 5681 5683 5684 5687 5690 5692 5694 5695 5696 5697 5698 5697 5697 5696 5695 5693 5691 5689 5685 5682 5678
5677 5677 5679 5679 5677 5676 5675 5677 5673 5670 5671 5669 5668 5668 5669 5670 5670 5671 5672 5672 5674 5676 5678 5680 5682 5684 5687 5688 5690 5691 5692 5693 5693 5693 5692 5691 5688 5686 5682 5678 5674 5670 5665
5657 5659 5663 5667 5666 5665 5665 5668 5667 5663 5664 5664 5663 5663 5664 5665 5665 5666 5667 5669 5671 5674 5676 5678 5681 5683 5684 5685 5687 5689 5690 5690 5690 5690 5687 5685 5682 5679 5675 5671 5666 5661 5656
5633 5639 5645 5649 5651 5652 5654 5658 5661 5657 5656 5658 5657 5658 5659 5660 5662 5662 5663 5665 5669 5671 5673 5675 5678 5679 5681 5682 5683 5684 5686 5686 5686 5684 5682 5680 5677 5673 5669 5664 5658 5652 5648
5608 5618 5625 5631 5633 5639 5643 5647 5651 5651 5650 5652 5652 5653 5656 5658 5660 5660 5661 5663 5666 5669 5671 5672 5673 5676 5677 5678 5679 5680 5681 5682 5681 5680 5679 5676 5672 5668 5663 5657 5651 5646 5643
5585 5596 5607 5614 5619 5626 5631 5637 5642 5644 5644 5647 5647 5649 5653 5657 5660 5660 5660 5661 5663 5665 5667 5669 5671 5673 5674 5675 5676 5676 5677 5678 5677 5675 5673 5671 5668 5664 5659 5653 5647 5643 5638
5562 5573 5585 5597 5604 5612 5619 5626 5632 5636 5638 5641 5642 5645 5649 5653 5657 5659 5659 5660 5661 5662 5664 5665 5667 5669 5669 5671 5672 5672 5673 5673 5672 5671 5669 5667 5664 5660 5655 5650 5645 5640 5634
5543 5556 5569 5580 5590 5599 5607 5615 5622 5627 5631 5634 5637 5641 5645 5648 5652 5655 5657 5657 5658 5659 5661 5662 5664 5665 5666 5667 5668 5669 5668 5669 5669 5669 5666 5663 5659 5656 5651 5646 5642 5637 5632
5530 5542 5552 5563 5576 5588 5595 5603 5612 5618 5623 5627 5631 5636 5640 5643 5646 5650 5653 5654 5655 5655 5657 5658 5660 5661 5662 5662 5664 5665 5665 5666 5667 5666 5663 5658 5655 5652 5649 5644 5640 5635 5631
5518 5526 5535 5547 5560 5574 5584 5593 5602 5609 5615 5620 5625 5630 5634 5637 5641 5645 5649 5651 5651 5651 5653 5654 5656 5658 5658 5658 5660 5661 5663 5663 5663 5661 5658 5654 5651 5650 5647 5643 5639 5634 5629
5510 5516 5526 5534 5548 5562 5574 5583 5593 5602 5608 5613 5618 5623 5628 5632 5636 5640 5644 5646 5647 5647 5649 5650 5652 5653 5655 5656 5657 5658 5659 5659 5659 5658 5655 5651 5648 5647 5645 5641 5638 5633 5628
5501 5508 5517 5528 5541 5554 5565 5575 5586 5595 5602 5608 5614 5618 5622 5627 5632 5635 5638 5640 5642 5643 5645 5646 5647 5648 5650 5652 5653 5653 5654 5654 5654 5653 5651 5648 5645 5643 5641 5639 5635 5631 5625
5493 5502 5511 5523 5535 5547 5558 5569 5580 5589 5597 5604 5609 5614 5618 5622 5627 5630 5633 5635 5637 5638 5639 5640 5641 5642 5644 5646 5647 5648 5649 5649 5648 5647 5646 5644 5642 5640 5638 5635 5632 5628 5623
5486 5497 5507 5520 5530 5541 5553 5563 5573 5583 5591 5598 5603 5608 5612 5617 5621 5624 5628 5629 5631 5633 5635 5636 5636 5637 5639 5640 5641 5642 5643 5643 5642 5641 5640 5638 5637 5636 5634 5631 5628 5625 5620
5480 5493 5505 5517 5528 5539 5549 5559 5568 5578 5585 5592 5597 5602 5607 5611 5615 5619 5622 5624 5625 5627 5629 5630 5631 5632 5633 5634 5634 5635 5637 5637 5636 5635 5634 5632 5631 5630 5629 5627 5624 5620 5616
5479 5493 5505 5517 5527 5537 5548 5556 5564 5573 5580 5587 5593 5598 5603 5607 5611 5614 5617 5619 5620 5622 5623 5625 5626 5627 5628 5628 5630 5631 5631 5630 5630 5629 5628 5627 5625 5624 5623 5622 5619 5616 5612
5481 5494 5506 5517 5527 5538 5546 5554 5562 5570 5576 5583 5589 5594 5599 5603 5607 5610 5612 5614 5615 5616 5618 5619 5620 5621 5622 5623 5623 5624 5624 5623 5622 5623 5622 5621 5619 5618 5616 5615 5613 5611 5607
5484 5497 5508 5519 5528 5538 5546 5553 5560 5567 5574 5581 5587 5591 5596 5600 5603 5606 5608 5609 5610 5612 5614 5614 5615 5616 5617 5617 5617 5618 5617 5617 5616 5616 5615 5615 5614 5612 5610 5609 5606 5604 5600